Back to catalog

CZ-2C DEB

AliveSSO
NORAD 28484·DEBRIS·🇨🇳 China

Launched Nov 18, 2004 from Xichang Satellite Launch Center

Loading…

Next Passes (next 24 hours)

TLE

FreshSource: Space-Track

Epoch: Sep 14, 2026, 12:00 UTC

1 28484U 04046F   26257.50054860  .00002269  00000-0  44755-3 0  9997
2 28484  98.3652 340.2528 0072454 339.1320  33.2216 14.61855228146592

Track CZ-2C DEB in real time with AllMySat

Download on the App Store